period_start,C,m1,H,J0,J1,J2,J3,J4,J5,JA,JB,JC,JD,JJ,JK,JN,#
2018-07-27 00:04:08,0.00,0.52,0.00,26.95,30.55,33.11,13.70,46.67,1020.49,2014.00,3160.01,2936.01,3377.00,599.67,590.16,9.01,0000 0000 0000 0000 000000
2018-07-27 00:09:10,0.00,0.52,0.00,26.98,30.57,33.13,13.78,46.72,1020.52,2014.00,3160.00,2936.00,3376.75,599.98,590.39,9.06,0000 0000 0000 0000 000000
2018-07-27 00:14:11,0.00,0.52,0.00,26.98,30.59,33.14,13.77,46.75,1020.52,2014.00,3159.97,2936.00,3376.16,599.92,590.30,9.11,0000 0000 0000 0000 000000
2018-07-27 00:19:12,0.01,0.52,0.00,27.00,30.61,33.17,13.76,46.68,1020.51,2013.99,3159.43,2935.84,3376.00,599.88,590.16,9.16,0000 0000 0000 0000 000000
2018-07-27 00:24:13,0.01,0.53,0.00,27.04,30.62,33.17,13.83,46.82,1020.51,2013.99,3159.09,2935.47,3376.00,600.10,590.41,9.21,0000 0000 0000 0000 000000
2018-07-27 00:29:15,0.01,0.53,0.00,27.07,30.65,33.18,13.71,46.51,1020.52,2013.97,3159.01,2935.10,3375.94,599.71,590.03,9.26,0000 0000 0000 0000 000000
2018-07-27 00:34:16,0.01,0.53,0.00,27.09,30.66,33.20,13.70,46.70,1020.52,2013.96,3158.99,2935.03,3375.61,599.42,589.60,9.31,0000 0000 0000 0000 000000
2018-07-27 00:39:17,-0.00,0.53,0.00,27.10,30.68,33.23,13.78,46.71,1020.52,2013.84,3158.96,2935.00,3375.06,600.16,590.28,9.36,0000 0000 0000 0000 000000
2018-07-27 00:44:19,-0.02,0.52,0.00,27.13,30.70,33.23,13.76,46.63,1020.52,2013.51,3158.62,2934.98,3375.00,600.08,590.18,9.41,0000 0000 0000 0000 000000
2018-07-27 00:49:20,-0.01,0.52,0.00,27.15,30.72,33.26,13.76,46.45,1020.52,2013.23,3158.09,2934.86,3374.98,600.17,590.16,9.46,0000 0000 0000 0000 000000
2018-07-27 00:54:21,0.01,0.52,0.00,27.17,30.74,33.26,13.68,46.52,1020.52,2013.11,3158.01,2934.44,3374.83,599.33,589.38,9.51,0000 0000 0000 0000 000000
2018-07-27 00:59:23,0.01,0.53,0.00,27.19,30.76,33.29,13.73,46.71,1020.49,2013.02,3158.00,2934.04,3374.25,599.57,589.54,9.56,0000 0000 0000 0000 000000
2018-07-27 01:04:24,0.00,0.53,0.00,27.22,30.78,33.30,13.72,46.64,1020.36,2013.01,3157.96,2934.00,3374.02,600.10,589.86,9.61,0000 0000 0000 0000 000000
2018-07-27 01:09:26,0.01,0.53,0.00,27.25,30.80,33.33,13.76,46.65,1020.27,2013.00,3157.47,2934.00,3374.00,599.92,589.70,9.66,0000 0000 0000 0000 000000
2018-07-27 01:14:27,0.00,0.53,0.00,27.28,30.82,33.35,13.68,46.42,1020.24,2013.00,3157.07,2933.99,3373.98,599.90,589.56,9.71,0000 0000 0000 0000 000000
2018-07-27 01:19:28,0.00,0.53,0.00,27.31,30.85,33.38,13.70,46.58,1020.39,2013.00,3157.00,2933.90,3373.76,599.70,589.34,9.76,0000 0000 0000 0000 000000
2018-07-27 01:24:30,0.03,0.53,0.00,27.34,30.87,33.40,13.73,46.59,1020.39,2012.99,3156.98,2933.20,3373.09,600.10,589.66,9.82,0000 0000 0000 0000 000000
2018-07-27 01:29:31,0.01,0.53,0.00,27.36,30.89,33.41,13.71,46.59,1020.34,2012.99,3156.75,2933.00,3373.00,599.58,589.14,9.87,0000 0000 0000 0000 000000
2018-07-27 01:34:32,0.00,0.53,0.00,27.39,30.91,33.44,13.74,46.48,1020.43,2012.95,3156.22,2933.00,3372.98,599.97,589.48,9.92,0000 0000 0000 0000 000000
2018-07-27 01:39:34,-0.01,0.53,0.00,27.42,30.94,33.47,13.86,46.66,1020.49,2012.72,3156.01,2932.95,3372.51,600.38,589.95,9.97,0000 0000 0000 0000 000000
2018-07-27 01:44:35,-0.03,0.53,0.00,27.45,30.96,33.49,13.70,46.42,1020.41,2012.15,3155.98,2932.49,3372.02,600.02,589.42,10.02,0000 0000 0000 0000 000000
2018-07-27 01:49:36,0.01,0.53,0.00,27.49,30.99,33.50,13.63,46.43,1020.34,2012.04,3155.67,2932.07,3372.00,599.98,589.26,10.07,0000 0000 0000 0000 000000
2018-07-27 01:54:37,0.01,0.53,0.00,27.53,31.01,33.53,13.73,46.51,1020.25,2012.00,3155.06,2932.00,3371.58,599.95,589.05,10.12,0000 0000 0000 0000 000000
2018-07-27 01:59:38,0.00,0.53,0.00,27.55,31.04,33.56,13.66,46.23,1020.14,2012.00,3154.99,2931.97,3371.03,599.67,588.74,10.17,0000 0000 0000 0000 000000
2018-07-27 02:04:39,0.01,0.53,0.00,27.57,31.06,33.58,13.70,46.41,1020.07,2012.00,3154.94,2931.60,3370.99,600.09,589.01,10.22,0000 0000 0000 0000 000000
2018-07-27 02:09:41,0.01,0.53,0.00,27.60,31.09,33.59,13.72,46.55,1020.06,2011.98,3154.50,2931.12,3370.88,600.35,589.36,10.27,0000 0000 0000 0000 000000
2018-07-27 02:14:42,0.01,0.53,0.00,27.62,31.11,33.63,13.70,46.61,1020.05,2011.95,3154.07,2931.00,3370.25,600.01,588.77,10.32,0000 0000 0000 0000 000000
2018-07-27 02:19:43,-0.02,0.53,0.00,27.65,31.14,33.66,13.72,46.49,1020.05,2011.81,3154.00,2930.99,3370.00,599.96,588.71,10.37,0000 0000 0000 0000 000000
2018-07-27 02:24:44,-0.00,0.53,0.00,27.68,31.16,33.68,13.70,46.49,1020.04,2011.59,3153.85,2930.84,3369.97,600.05,588.91,10.42,0000 0000 0000 0000 000000
2018-07-27 02:29:45,0.00,0.53,0.00,27.71,31.19,33.71,13.66,46.36,1020.04,2011.11,3153.10,2930.11,3369.37,599.70,588.49,10.47,0000 0000 0000 0000 000000
2018-07-27 02:34:46,-0.01,0.53,0.00,27.74,31.22,33.74,13.67,46.35,1020.04,2011.02,3153.00,2930.00,3369.01,599.80,588.40,10.52,0000 0000 0000 0000 000000
2018-07-27 02:39:48,0.00,0.53,0.00,27.76,31.25,33.75,13.74,46.40,1020.04,2011.00,3152.99,2930.00,3369.00,600.00,588.59,10.57,0000 0000 0000 0000 000000
2018-07-27 02:44:49,0.02,0.53,0.00,27.80,31.27,33.78,13.75,46.44,1020.04,2010.99,3152.63,2929.93,3368.65,600.06,588.60,10.62,0000 0000 0000 0000 000000
2018-07-27 02:49:50,0.03,0.53,0.00,27.83,31.30,33.80,13.61,46.27,1020.03,2010.98,3152.08,2929.37,3368.09,599.37,587.82,10.67,0000 0000 0000 0000 000000
2018-07-27 02:54:52,0.00,0.53,0.00,27.86,31.33,33.84,13.71,46.49,1020.03,2010.96,3152.00,2929.02,3368.00,599.94,588.32,10.72,0000 0000 0000 0000 000000
2018-07-27 02:59:53,-0.01,0.53,0.00,27.88,31.36,33.86,13.70,46.38,1020.02,2010.78,3151.85,2928.99,3367.81,600.22,588.53,10.77,0000 0000 0000 0000 000000
2018-07-27 03:04:55,-0.00,0.53,0.00,27.91,31.37,33.89,13.77,46.38,1019.98,2010.52,3151.31,2928.95,3367.15,599.91,588.25,10.82,0000 0000 0000 0000 000000
2018-07-27 03:09:56,-0.02,0.53,0.00,27.94,31.40,33.92,13.67,46.38,1019.96,2010.18,3151.00,2928.63,3367.00,599.72,587.85,10.87,0000 0000 0000 0000 000000
2018-07-27 03:14:57,0.01,0.53,0.00,27.98,31.43,33.94,13.69,46.39,1019.96,2010.05,3150.96,2928.09,3366.90,599.54,587.62,10.92,0000 0000 0000 0000 000000
2018-07-27 03:19:59,0.01,0.53,0.00,28.01,31.46,33.96,13.74,46.55,1019.84,2010.00,3150.68,2928.00,3366.27,600.10,588.01,10.97,0000 0000 0000 0000 000000
2018-07-27 03:25:00,0.01,0.53,0.00,28.04,31.48,33.99,13.65,46.42,1019.77,2010.00,3150.08,2927.98,3366.01,600.08,588.00,11.02,0000 0000 0000 0000 000000
2018-07-27 03:30:01,0.02,0.53,0.00,28.07,31.51,34.03,13.70,46.49,1019.67,2010.00,3149.99,2927.68,3365.89,600.13,587.92,11.07,0000 0000 0000 0000 000000
2018-07-27 03:35:03,0.02,0.53,0.00,28.08,31.53,34.06,13.72,46.42,1019.67,2009.98,3149.67,2927.08,3365.21,600.14,587.88,11.12,0000 0000 0000 0000 000000
2018-07-27 03:40:04,0.01,0.54,0.00,28.10,31.56,34.09,13.75,46.44,1019.74,2009.96,3149.11,2927.00,3365.00,599.87,587.60,11.17,0000 0000 0000 0000 000000
2018-07-27 03:45:05,-0.03,0.53,0.00,28.12,31.59,34.11,13.74,46.48,1019.78,2009.69,3149.00,2926.96,3364.94,600.38,588.06,11.22,0000 0000 0000 0000 000000
2018-07-27 03:50:06,-0.01,0.53,0.00,28.16,31.61,34.14,13.68,46.25,1019.82,2009.24,3148.92,2926.60,3364.33,599.72,587.54,11.27,0000 0000 0000 0000 000000
2018-07-27 03:55:08,0.01,0.53,0.00,28.19,31.64,34.16,13.59,46.35,1019.85,2009.12,3148.36,2926.09,3364.02,599.66,587.42,11.32,0000 0000 0000 0000 000000
2018-07-27 04:00:09,0.00,0.53,0.00,28.20,31.66,34.18,13.68,46.39,1019.92,2009.01,3148.01,2926.00,3363.89,599.94,587.64,11.37,0000 0000 0000 0000 000000
2018-07-27 04:05:10,0.01,0.53,0.00,28.24,31.69,34.21,13.70,46.35,1019.95,2009.00,3147.97,2925.98,3363.30,600.05,587.65,11.42,0000 0000 0000 0000 000000
2018-07-27 04:10:11,0.02,0.53,0.00,28.26,31.71,34.23,13.70,46.30,1019.93,2009.00,3147.64,2925.67,3363.00,600.05,587.59,11.47,0000 0000 0000 0000 000000
2018-07-27 04:15:12,0.01,0.54,0.00,28.30,31.74,34.25,13.75,46.33,1019.84,2008.99,3147.04,2925.08,3362.96,600.21,587.60,11.52,0000 0000 0000 0000 000000
2018-07-27 04:20:14,0.00,0.54,0.00,28.31,31.77,34.29,13.65,46.27,1019.68,2008.97,3147.00,2925.00,3362.46,599.83,586.98,11.57,0000 0000 0000 0000 000000
2018-07-27 04:25:15,0.00,0.54,0.00,28.32,31.79,34.32,13.68,46.39,1019.60,2008.90,3146.89,2924.99,3362.03,599.97,587.29,11.62,0000 0000 0000 0000 000000
2018-07-27 04:30:16,-0.03,0.54,0.00,28.36,31.82,34.35,13.68,46.40,1019.57,2008.46,3146.28,2924.67,3361.94,599.85,586.97,11.67,0000 0000 0000 0000 000000
2018-07-27 04:35:17,0.01,0.54,0.00,28.38,31.84,34.37,13.72,46.28,1019.56,2008.14,3146.01,2924.15,3361.36,600.10,587.25,11.72,0000 0000 0000 0000 000000
2018-07-27 04:40:19,0.00,0.54,0.00,28.39,31.86,34.41,13.72,46.38,1019.55,2008.05,3145.98,2924.03,3361.03,600.16,587.22,11.77,0000 0000 0000 0000 000000
2018-07-27 04:45:20,0.00,0.54,0.00,28.41,31.89,34.43,13.73,46.34,1019.55,2008.01,3145.81,2924.00,3360.99,600.28,587.24,11.82,0000 0000 0000 0000 000000
2018-07-27 04:50:22,0.02,0.54,0.00,28.42,31.91,34.45,13.70,46.35,1019.55,2008.00,3145.10,2923.94,3360.53,599.96,586.95,11.87,0000 0000 0000 0000 000000
2018-07-27 04:55:23,0.02,0.54,0.00,28.44,31.93,34.48,13.71,46.42,1019.55,2008.00,3145.00,2923.39,3360.02,599.84,586.82,11.92,0000 0000 0000 0000 000000
2018-07-27 05:00:24,0.00,0.54,0.00,28.47,31.95,34.48,13.68,46.24,1019.55,2007.98,3144.93,2923.02,3359.97,600.15,587.13,11.97,0000 0000 0000 0000 000000
2018-07-27 05:05:26,0.02,0.54,0.00,28.47,31.97,34.52,13.69,46.33,1019.55,2007.92,3144.30,2923.00,3359.41,599.96,586.91,12.02,0000 0000 0000 0000 000000
2018-07-27 05:10:27,-0.01,0.54,0.00,28.50,32.00,34.54,13.71,46.33,1019.54,2007.71,3144.01,2922.94,3359.01,600.15,586.92,12.08,0000 0000 0000 0000 000000
2018-07-27 05:15:28,-0.02,0.54,0.00,28.50,32.02,34.56,13.58,46.30,1019.51,2007.35,3143.99,2922.46,3358.96,599.70,586.53,12.13,0000 0000 0000 0000 000000
2018-07-27 05:20:30,0.01,0.54,0.00,28.53,32.04,34.58,13.61,46.25,1019.42,2007.09,3143.57,2922.04,3358.35,599.96,586.61,12.18,0000 0000 0000 0000 000000
2018-07-27 05:25:31,0.00,0.54,0.00,28.55,32.06,34.59,13.65,46.30,1019.32,2007.01,3143.04,2922.00,3358.01,599.68,586.36,12.23,0000 0000 0000 0000 000000
2018-07-27 05:30:32,0.00,0.54,0.00,28.55,32.08,34.62,13.71,46.29,1019.38,2007.00,3142.99,2921.94,3357.95,599.85,586.48,12.28,0000 0000 0000 0000 000000
2018-07-27 05:35:34,0.04,0.54,0.00,28.57,32.10,34.66,13.67,46.38,1019.49,2007.00,3142.68,2921.44,3357.26,600.16,586.84,12.33,0000 0000 0000 0000 000000
2018-07-27 05:40:35,0.01,0.54,0.00,28.58,32.12,34.66,13.69,46.34,1019.48,2006.99,3142.05,2921.05,3357.00,600.03,586.71,12.38,0000 0000 0000 0000 000000
2018-07-27 05:45:36,-0.00,0.54,0.00,28.60,32.14,34.68,13.64,46.29,1019.44,2006.98,3142.00,2921.00,3356.98,599.72,586.36,12.43,0000 0000 0000 0000 000000
2018-07-27 05:50:37,0.01,0.54,0.00,28.61,32.16,34.71,13.66,46.36,1019.50,2006.91,3141.97,2921.00,3356.66,600.04,586.64,12.48,0000 0000 0000 0000 000000
2018-07-27 05:55:38,-0.02,0.54,0.00,28.63,32.18,34.73,13.70,46.30,1019.50,2006.58,3141.64,2920.90,3356.09,600.08,586.65,12.53,0000 0000 0000 0000 000000
2018-07-27 06:00:39,0.01,0.54,0.00,28.65,32.20,34.75,13.72,46.29,1019.53,2006.31,3141.05,2920.44,3356.00,600.08,586.65,12.58,0000 0000 0000 0000 000000
2018-07-27 06:05:40,-0.00,0.54,0.00,28.67,32.22,34.76,13.72,46.36,1019.53,2006.08,3140.98,2920.05,3355.64,600.10,586.57,12.63,0000 0000 0000 0000 000000
2018-07-27 06:10:41,0.00,0.54,0.00,28.67,32.23,34.77,13.70,46.27,1019.48,2006.02,3140.78,2920.00,3355.09,600.10,586.60,12.68,0000 0000 0000 0000 000000
2018-07-27 06:15:42,0.01,0.54,0.00,28.69,32.25,34.81,13.67,46.35,1019.47,2006.00,3140.13,2919.98,3355.00,599.88,586.33,12.73,0000 0000 0000 0000 000000
2018-07-27 06:20:44,0.00,0.54,0.00,28.71,32.27,34.81,13.72,46.29,1019.54,2006.00,3140.00,2919.87,3354.93,600.15,586.63,12.78,0000 0000 0000 0000 000000
2018-07-27 06:25:45,0.02,0.54,0.00,28.72,32.29,34.84,13.67,46.33,1019.52,2006.00,3139.96,2919.33,3354.32,599.86,586.42,12.83,0000 0000 0000 0000 000000
2018-07-27 06:30:47,0.02,0.54,0.00,28.74,32.30,34.87,13.64,46.27,1019.52,2006.00,3139.45,2919.04,3354.02,599.83,586.27,12.88,0000 0000 0000 0000 000000
2018-07-27 06:35:48,-0.00,0.55,0.00,28.76,32.32,34.88,13.69,46.36,1019.51,2005.98,3139.02,2919.00,3353.99,600.06,586.38,12.93,0000 0000 0000 0000 000000
2018-07-27 06:40:50,0.01,0.55,0.00,28.78,32.34,34.89,13.68,46.42,1019.46,2005.98,3139.00,2918.99,3353.80,600.06,586.32,12.98,0000 0000 0000 0000 000000
2018-07-27 06:45:51,0.01,0.55,0.00,28.79,32.35,34.91,13.66,46.33,1019.42,2005.94,3138.85,2918.88,3353.12,599.97,586.18,13.03,0000 0000 0000 0000 000000
2018-07-27 06:50:53,0.01,0.55,0.00,28.81,32.37,34.93,13.63,46.35,1019.47,2005.82,3138.20,2918.43,3353.00,599.80,586.02,13.08,0000 0000 0000 0000 000000
2018-07-27 06:55:54,-0.02,0.55,0.00,28.83,32.39,34.94,13.69,46.33,1019.34,2005.58,3138.02,2918.11,3352.97,600.04,586.22,13.13,0000 0000 0000 0000 000000
2018-07-27 07:00:55,-0.01,0.55,0.00,28.86,32.40,34.93,13.69,46.45,1019.23,2005.25,3137.99,2918.00,3352.57,599.86,585.86,13.18,0000 0000 0000 0000 000000
2018-07-27 07:05:56,-0.00,0.55,0.00,28.88,32.42,34.95,13.60,46.23,1019.18,2005.11,3137.82,2918.00,3352.05,600.10,585.90,13.23,0000 0000 0000 0000 000000
2018-07-27 07:10:58,0.01,0.55,0.00,28.90,32.44,34.99,13.68,46.38,1019.28,2005.05,3137.16,2917.98,3352.00,599.90,585.76,13.28,0000 0000 0000 0000 000000
2018-07-27 07:15:59,0.01,0.55,0.00,28.83,32.45,35.04,13.73,46.33,1019.46,2005.00,3137.00,2917.71,3351.94,600.12,586.28,13.33,0000 0000 0000 0000 000000
2018-07-27 07:21:00,0.02,0.55,0.00,28.71,32.46,35.29,13.66,46.17,1019.48,2005.00,3136.94,2917.21,3351.38,599.98,586.33,13.38,0000 0000 0000 0000 000000
2018-07-27 07:26:01,0.01,0.55,0.00,28.52,32.45,35.48,13.72,46.18,1019.49,2005.00,3136.37,2917.04,3351.03,600.35,587.03,13.43,0000 0000 0000 0000 000000
2018-07-27 07:31:02,0.00,0.55,0.00,28.31,32.45,35.53,13.75,46.05,1019.51,2005.01,3136.06,2917.06,3351.02,600.08,587.29,13.48,0000 0000 0000 0000 000000
2018-07-27 07:36:04,-0.00,0.55,0.00,28.15,32.41,35.46,13.76,46.03,1019.54,2005.07,3136.06,2917.29,3351.05,600.21,587.78,13.53,0000 0000 0000 0000 000000
2018-07-27 07:41:05,-0.00,0.55,0.00,28.00,32.38,35.39,13.76,46.19,1019.55,2005.23,3136.05,2917.71,3351.19,599.97,587.74,13.58,0000 0000 0000 0000 000000
2018-07-27 07:46:07,0.04,0.55,0.00,27.87,32.33,35.26,13.79,46.15,1019.55,2005.72,3136.03,2917.96,3351.55,600.18,588.22,13.63,0000 0000 0000 0000 000000
2018-07-27 07:51:08,0.00,0.55,0.00,27.78,32.28,35.10,13.75,46.20,1019.51,2005.96,3136.21,2917.99,3351.94,599.82,588.04,13.68,0000 0000 0000 0000 000000
2018-07-27 07:56:09,-0.01,0.55,0.00,27.69,32.22,34.96,13.75,46.09,1019.26,2005.99,3136.71,2918.04,3351.99,600.33,588.60,13.73,0000 0000 0000 0000 000000
2018-07-27 08:01:10,-0.02,0.55,0.00,27.62,32.16,34.84,13.73,46.13,1019.10,2006.03,3136.95,2918.59,3352.04,599.83,588.14,13.78,0000 0000 0000 0000 000000
2018-07-27 08:06:12,0.04,0.55,0.00,27.57,32.09,34.70,13.74,46.16,1019.12,2006.53,3136.99,2918.96,3352.49,599.76,588.14,13.83,0000 0000 0000 0000 000000
2018-07-27 08:11:13,0.09,0.56,0.00,27.55,32.03,34.60,13.78,46.16,1019.09,2006.97,3135.84,2918.18,3351.46,600.04,588.35,13.88,0000 0000 0000 0000 000000
2018-07-27 08:16:14,-0.00,0.56,0.00,27.51,31.96,34.51,13.80,46.11,1019.07,2007.00,3135.74,2917.99,3351.20,599.99,588.48,13.93,0000 0000 0000 0000 000000
2018-07-27 08:21:16,0.03,0.56,0.00,27.50,31.89,34.42,13.79,46.08,1019.07,2007.24,3135.86,2918.00,3351.65,600.10,588.64,13.98,0000 0000 0000 0000 000000
2018-07-27 08:26:17,0.06,0.56,0.00,27.47,31.83,34.34,13.75,46.08,1019.06,2007.79,3135.15,2917.99,3351.05,600.06,588.59,14.03,0000 0000 0000 0000 000000
2018-07-27 08:31:18,0.01,0.56,0.00,27.46,31.77,34.24,13.81,46.19,1019.06,2007.98,3135.27,2917.99,3351.05,600.16,588.73,14.08,0000 0000 0000 0000 000000
2018-07-27 08:36:19,-0.02,0.56,0.00,27.45,31.71,34.19,13.74,46.11,1019.06,2008.00,3135.84,2918.12,3351.73,600.09,588.73,14.13,0000 0000 0000 0000 000000
2018-07-27 08:41:20,0.01,0.56,0.00,27.45,31.65,34.16,13.76,46.25,1019.06,2008.20,3135.99,2918.76,3351.98,600.04,588.74,14.18,0000 0000 0000 0000 000000
2018-07-27 08:46:22,0.05,0.56,0.00,27.45,31.59,34.11,13.77,46.16,1019.06,2008.85,3135.99,2918.99,3352.00,599.97,588.61,14.23,0000 0000 0000 0000 000000
2018-07-27 08:51:23,0.00,0.56,0.00,27.45,31.54,34.11,13.76,46.19,1019.05,2008.99,3136.00,2919.00,3352.05,600.22,588.83,14.29,0000 0000 0000 0000 000000
2018-07-27 08:56:24,-0.00,0.56,0.00,27.45,31.49,34.08,13.73,46.13,1019.06,2008.99,3136.02,2919.07,3352.31,600.05,588.66,14.34,0000 0000 0000 0000 000000
2018-07-27 09:01:26,-0.02,0.56,0.00,27.46,31.45,34.06,13.69,46.13,1019.06,2009.03,3136.02,2919.42,3352.68,600.02,588.65,14.39,0000 0000 0000 0000 000000
2018-07-27 09:06:27,0.03,0.56,0.00,27.47,31.41,34.00,13.82,46.08,1019.06,2009.37,3136.14,2919.90,3352.94,600.34,588.82,14.44,0000 0000 0000 0000 000000
2018-07-27 09:11:28,0.02,0.57,0.00,27.49,31.37,33.98,13.77,46.10,1019.06,2009.89,3136.53,2919.98,3352.99,599.87,588.53,14.49,0000 0000 0000 0000 000000
2018-07-27 09:16:29,0.00,0.57,0.00,27.50,31.34,33.95,13.81,46.08,1019.06,2009.99,3136.92,2919.99,3353.01,600.28,588.80,14.54,0000 0000 0000 0000 000000
2018-07-27 09:21:30,0.00,0.57,0.00,27.52,31.31,33.91,13.77,46.03,1019.03,2009.99,3136.98,2920.03,3353.02,599.96,588.40,14.59,0000 0000 0000 0000 000000
2018-07-27 09:26:31,0.00,0.57,0.00,27.54,31.27,33.82,13.71,46.01,1018.91,2010.00,3136.96,2920.08,3353.02,600.06,588.45,14.64,0000 0000 0000 0000 000000
2018-07-27 09:31:32,-0.00,0.57,0.00,27.56,31.25,33.70,13.69,46.02,1018.82,2010.04,3136.95,2920.30,3353.03,599.99,588.19,14.69,0000 0000 0000 0000 000000
2018-07-27 09:36:34,0.00,0.57,0.00,27.58,31.22,33.64,13.76,46.02,1018.72,2010.13,3136.95,2920.53,3353.04,600.15,588.34,14.74,0000 0000 0000 0000 000000
2018-07-27 09:41:35,0.02,0.57,0.00,27.61,31.20,33.59,13.65,45.98,1018.68,2010.49,3136.97,2920.82,3353.11,599.65,587.75,14.79,0000 0000 0000 0000 000000
2018-07-27 09:46:36,0.03,0.57,0.00,27.63,31.18,33.54,13.72,46.00,1018.73,2010.89,3136.98,2920.95,3353.19,599.81,588.05,14.84,0000 0000 0000 0000 000000
2018-07-27 09:51:37,0.01,0.57,0.00,27.65,31.17,33.53,13.70,46.02,1018.76,2010.97,3136.96,2920.97,3353.16,600.27,588.27,14.89,0000 0000 0000 0000 000000
2018-07-27 09:56:39,0.00,0.57,0.00,27.68,31.15,33.51,13.74,46.00,1018.67,2010.99,3136.95,2920.97,3353.13,600.08,588.02,14.94,0000 0000 0000 0000 000000
2018-07-27 10:01:40,0.00,0.57,0.00,27.71,31.15,33.50,13.73,46.02,1018.63,2010.99,3136.96,2920.99,3353.14,600.41,588.27,14.99,0000 0000 0000 0000 000000
2018-07-27 10:06:41,0.00,0.57,0.00,27.73,31.14,33.49,13.71,45.97,1018.58,2010.99,3136.92,2920.99,3353.13,600.02,587.92,15.04,0000 0000 0000 0000 000000
2018-07-27 10:11:42,0.01,0.57,0.00,27.76,31.13,33.49,13.67,45.99,1018.57,2010.99,3136.63,2920.99,3353.01,600.16,587.90,15.09,0000 0000 0000 0000 000000
2018-07-27 10:16:43,0.00,0.57,0.00,27.79,31.12,33.49,13.66,45.95,1018.57,2010.99,3136.31,2920.99,3353.00,599.87,587.49,15.14,0000 0000 0000 0000 000000
2018-07-27 10:21:44,0.00,0.57,0.00,27.82,31.13,33.50,13.69,45.88,1018.57,2010.99,3136.02,2920.97,3352.99,600.03,587.71,15.19,0000 0000 0000 0000 000000
2018-07-27 10:26:46,0.00,0.57,0.00,27.85,31.14,33.51,13.71,46.02,1018.57,2010.99,3136.00,2920.95,3352.97,600.25,587.87,15.24,0000 0000 0000 0000 000000
2018-07-27 10:31:47,0.00,0.57,0.00,27.89,31.15,33.52,13.69,45.90,1018.57,2011.00,3136.00,2920.88,3352.90,600.09,587.63,15.29,0000 0000 0000 0000 000000
2018-07-27 10:36:48,0.03,0.57,0.00,27.92,31.15,33.55,13.70,45.90,1018.57,2011.00,3135.99,2920.41,3352.29,599.76,587.19,15.34,0000 0000 0000 0000 000000
2018-07-27 10:41:49,0.01,0.57,0.00,27.96,31.17,33.60,13.80,45.94,1018.57,2011.00,3135.73,2920.10,3352.02,600.32,587.63,15.39,0000 0000 0000 0000 000000
2018-07-27 10:46:50,0.00,0.57,0.00,28.00,31.19,33.67,13.67,45.95,1018.57,2011.00,3135.10,2920.00,3352.00,599.83,587.06,15.44,0000 0000 0000 0000 000000
2018-07-27 10:51:52,0.00,0.57,0.00,28.05,31.20,33.73,13.76,45.93,1018.57,2010.99,3135.00,2920.00,3351.81,600.46,587.61,15.49,0000 0000 0000 0000 000000
2018-07-27 10:56:53,0.01,0.57,0.00,28.11,31.22,33.78,13.67,45.88,1018.57,2010.98,3135.00,2919.98,3351.12,599.88,586.94,15.54,0000 0000 0000 0000 000000
2018-07-27 11:01:54,0.00,0.57,0.00,28.17,31.25,33.83,13.67,45.96,1018.57,2010.98,3134.97,2919.86,3351.00,600.19,587.13,15.59,0000 0000 0000 0000 000000
2018-07-27 11:06:55,0.02,0.57,0.00,28.24,31.27,33.88,13.76,45.88,1018.57,2010.97,3134.65,2919.38,3350.97,600.16,586.96,15.64,0000 0000 0000 0000 000000
2018-07-27 11:11:56,0.01,0.58,0.00,28.31,31.30,33.94,13.69,45.85,1018.57,2010.94,3134.08,2919.03,3350.53,600.08,586.78,15.69,0000 0000 0000 0000 000000
2018-07-27 11:16:58,-0.02,0.58,0.00,28.37,31.32,33.97,13.54,45.83,1018.57,2010.77,3134.00,2919.00,3350.03,599.97,586.52,15.74,0000 0000 0000 0000 000000
2018-07-27 11:21:59,-0.02,0.57,0.00,28.41,31.35,33.99,13.74,45.89,1018.56,2010.48,3133.93,2918.98,3349.97,600.24,586.74,15.79,0000 0000 0000 0000 000000
2018-07-27 11:27:00,0.02,0.57,0.00,28.46,31.37,34.01,13.66,45.92,1018.46,2010.13,3133.17,2918.45,3349.40,600.39,586.64,15.84,0000 0000 0000 0000 000000
2018-07-27 11:32:01,0.00,0.57,0.00,28.48,31.38,34.02,13.52,45.87,1018.37,2010.04,3133.00,2918.05,3349.01,599.69,585.95,15.89,0000 0000 0000 0000 000000
2018-07-27 11:37:02,0.00,0.57,0.00,28.51,31.40,34.01,13.68,45.91,1018.50,2010.01,3132.90,2918.00,3348.96,599.95,586.19,15.94,0000 0000 0000 0000 000000
2018-07-27 11:42:04,0.02,0.58,0.00,28.52,31.42,34.00,13.65,45.91,1018.56,2010.00,3132.28,2917.98,3348.41,599.91,586.16,15.99,0000 0000 0000 0000 000000
2018-07-27 11:47:05,0.01,0.58,0.00,28.52,31.44,34.01,13.63,45.85,1018.48,2009.99,3132.00,2917.79,3348.02,599.79,585.97,16.04,0000 0000 0000 0000 000000
2018-07-27 11:52:06,0.00,0.58,0.00,28.52,31.45,34.01,13.72,45.85,1018.26,2009.99,3131.99,2917.63,3348.00,600.20,586.28,16.09,0000 0000 0000 0000 000000
2018-07-27 11:57:08,0.01,0.58,0.00,28.50,31.46,34.02,13.69,45.83,1018.21,2009.99,3131.91,2917.12,3347.95,600.23,586.37,16.14,0000 0000 0000 0000 000000
2018-07-27 12:02:09,0.02,0.58,0.00,28.46,31.47,34.01,13.75,45.89,1018.14,2009.99,3131.31,2917.01,3347.37,600.22,586.41,16.19,0000 0000 0000 0000 000000
2018-07-27 12:07:10,0.00,0.58,0.00,28.39,31.47,34.01,13.68,45.88,1018.10,2009.98,3131.01,2917.00,3347.01,600.04,586.36,16.24,0000 0000 0000 0000 000000
2018-07-27 12:12:11,-0.00,0.58,0.00,28.31,31.47,34.00,13.65,45.86,1018.09,2009.98,3131.00,2917.00,3347.00,600.06,586.50,16.29,0000 0000 0000 0000 000000
2018-07-27 12:17:12,0.00,0.58,0.00,28.21,31.47,34.01,13.66,45.97,1018.08,2009.97,3130.95,2916.98,3346.95,600.01,586.58,16.34,0000 0000 0000 0000 000000
2018-07-27 12:22:14,0.00,0.58,0.00,28.11,31.46,34.00,13.62,45.90,1018.08,2009.96,3130.77,2916.98,3346.90,599.93,586.71,16.39,0000 0000 0000 0000 000000
2018-07-27 12:27:15,0.01,0.58,0.00,28.05,31.45,33.99,13.58,45.88,1018.08,2009.98,3130.40,2916.97,3346.63,599.82,586.76,16.44,0000 0000 0000 0000 000000
2018-07-27 12:32:16,0.01,0.58,0.00,27.99,31.45,33.97,13.69,45.92,1018.08,2009.97,3130.08,2916.93,3346.17,600.02,586.99,16.49,0000 0000 0000 0000 000000
2018-07-27 12:37:17,0.00,0.58,0.00,27.93,31.42,33.98,13.66,45.92,1018.07,2009.99,3130.00,2916.83,3346.03,599.92,587.16,16.54,0000 0000 0000 0000 000000
2018-07-27 12:42:18,0.01,0.58,0.00,27.88,31.42,33.96,13.65,45.87,1018.02,2009.99,3129.99,2916.45,3346.00,600.06,587.19,16.59,0000 0000 0000 0000 000000
2018-07-27 12:47:20,-0.01,0.58,0.00,27.85,31.40,33.95,13.69,45.99,1018.01,2009.99,3129.98,2916.45,3346.00,599.94,587.10,16.64,0000 0000 0000 0000 000000
2018-07-27 12:52:21,0.01,0.58,0.00,27.82,31.39,33.95,13.67,45.93,1017.87,2009.99,3129.97,2916.33,3346.00,599.89,587.10,16.69,0000 0000 0000 0000 000000
2018-07-27 12:57:22,0.01,0.58,0.00,27.80,31.37,33.92,13.63,46.02,1017.62,2009.99,3129.62,2916.13,3345.96,599.87,586.99,16.74,0000 0000 0000 0000 000000